TimeAKDT,TemperatureF,Dew PointF,Humidity,Sea Level PressureIn,VisibilityMPH,Wind Direction,Wind SpeedMPH,Gust SpeedMPH,PrecipitationIn,Events,Conditions,WindDirDegrees,DateUTC
12:58 AM,32.2,28.9,88,29.97,10.0,NW,5.8,-,N/A,,Clear,320,2013-09-16 08:58:00
1:58 AM,32.5,28.6,85,29.96,10.0,North,9.2,-,N/A,,Clear,10,2013-09-16 09:58:00
2:58 AM,28.6,26.4,92,29.95,10.0,NNE,10.4,-,N/A,,Clear,20,2013-09-16 10:58:00
3:58 AM,27.3,25.7,94,29.94,10.0,North,10.4,-,N/A,,Clear,10,2013-09-16 11:58:00
4:58 AM,25.9,24.1,93,29.93,10.0,North,6.9,-,N/A,,Clear,360,2013-09-16 12:58:00
5:58 AM,23.2,20.7,90,29.92,10.0,North,5.8,-,N/A,,Clear,10,2013-09-16 13:58:00
6:58 AM,30.0,25.5,83,29.89,10.0,NNE,8.1,-,N/A,,Clear,20,2013-09-16 14:58:00
7:58 AM,29.8,26.2,86,29.88,10.0,NNE,5.8,-,N/A,,Clear,30,2013-09-16 15:58:00
8:58 AM,32.9,28.4,84,29.88,10.0,NNE,3.5,-,N/A,,Clear,20,2013-09-16 16:58:00
9:58 AM,39.0,30.4,71,29.87,10.0,NE,2.3,-,N/A,,Clear,40,2013-09-16 17:58:00
10:58 AM,45.0,28.8,53,29.84,10.0,ENE,9.2,-,N/A,,Clear,70,2013-09-16 18:58:00
11:58 AM,49.3,26.6,41,29.83,10.0,East,12.7,-,N/A,,Clear,80,2013-09-16 19:58:00
12:58 PM,51.1,25.9,38,29.81,10.0,ENE,12.7,-,N/A,,Clear,60,2013-09-16 20:58:00
1:58 PM,53.1,26.6,36,29.77,10.0,NNE,16.1,20.7,N/A,,Clear,20,2013-09-16 21:58:00
2:58 PM,54.1,25.7,33,29.75,10.0,NE,12.7,-,N/A,,Clear,40,2013-09-16 22:58:00
3:58 PM,54.7,25.3,32,29.73,10.0,NNE,16.1,-,N/A,,Clear,30,2013-09-16 23:58:00
4:58 PM,53.2,25.9,35,29.73,10.0,NE,13.8,-,N/A,,Clear,40,2013-09-17 00:58:00
5:58 PM,51.1,27.1,40,29.72,10.0,NE,16.1,-,N/A,,Clear,40,2013-09-17 01:58:00
6:58 PM,49.1,26.6,42,29.70,10.0,NE,15.0,-,N/A,,Clear,40,2013-09-17 02:58:00
7:58 PM,46.2,25.5,44,29.72,10.0,NE,13.8,-,N/A,,Clear,50,2013-09-17 03:58:00
8:58 PM,44.6,24.6,45,29.72,10.0,NE,10.4,-,N/A,,Partly Cloudy,40,2013-09-17 04:58:00
9:58 PM,43.5,23.4,45,29.70,10.0,NNE,9.2,-,N/A,,Partly Cloudy,30,2013-09-17 05:58:00
10:58 PM,42.6,22.8,46,29.69,10.0,NE,8.1,-,N/A,,Clear,50,2013-09-17 06:58:00
11:58 PM,41.2,22.1,47,29.69,10.0,NE,12.7,-,N/A,,Clear,50,2013-09-17 07:58:00